EW8967 Weather Reports


time (UTC)temp
F
wind
direction
speed
knots
gust
knots
rain 1hr
in
rain 24hr
in
rain mn
in
humidity
%
barometer
mb
20260506033646 67 0 0.0 4.3 0.00 0.21 0.12 37 1012.9
20260506033642 67 0 0.9 5.2 0.00 0.21 0.12 38 1013.0
20260506032641 67 0 0.0 4.3 0.00 0.21 0.12 36 1012.8
20260506032141 67 0 0.0 3.5 0.00 0.21 0.12 35 1012.7
20260506031640 67 0 0.0 1.7 0.00 0.21 0.12 36 1012.6
20260506031139 67 0 0.0 3.5 0.00 0.21 0.12 35 1012.6
20260506030639 68 0 0.9 5.2 0.00 0.21 0.12 35 1012.5
20260506030139 68 0 0.9 5.2 0.00 0.21 0.12 34 1012.5
20260506025636 68 0 0.0 1.7 0.00 0.21 0.12 33 1012.4
20260506025133 68 0 0.9 6.1 0.00 0.22 0.12 33 1012.3
20260506024631 68 0 2.6 9.6 0.00 0.23 0.12 32 1012.3
20260506024132 68 0 1.7 9.6 0.00 0.23 0.12 31 1012.2
20260506023631 68 0 0.9 8.7 0.00 0.24 0.12 32 1012.1
20260506023131 69 0 1.7 6.1 0.00 0.24 0.12 32 1012.0
20260506022632 69 0 1.7 7.0 0.00 0.24 0.12 32 1012.0
20260506022131 69 0 1.7 7.0 0.00 0.25 0.12 32 1011.9
20260506021631 69 0 1.7 6.1 0.00 0.25 0.12 33 1011.7
20260506021131 69 0 1.7 6.1 0.00 0.26 0.12 33 1011.6
20260506020629 69 0 0.9 7.0 0.00 0.26 0.12 33 1011.6
20260506020129 70 0 0.9 7.0 0.00 0.26 0.12 33 1011.5
20260506015629 70 0 1.7 7.8 0.00 0.27 0.12 33 1011.4
20260506015129 70 0 1.7 8.7 0.00 0.28 0.12 33 1011.4
20260506014633 70 0 2.6 8.7 0.00 0.30 0.12 33 1011.3
20260506014629 70 0 1.7 8.7 0.00 0.29 0.12 33 1011.3
20260506013629 71 0 2.6 10.4 0.00 0.30 0.12 32 1011.3
20260506013130 71 0 3.5 10.4 0.00 0.30 0.12 33 1011.2
20260506012629 72 0 3.5 11.3 0.00 0.30 0.12 32 1011.2
20260506012128 73 0 3.5 11.3 0.00 0.30 0.12 32 1011.1
20260506011629 73 0 3.5 10.4 0.00 0.30 0.12 30 1011.0
20260506011129 73 0 2.6 10.4 0.00 0.30 0.12 30 1011.0
20260506010633 74 0 2.6 9.6 0.00 0.30 0.12 29 1010.8
20260506010629 74 0 2.6 9.6 0.00 0.30 0.12 29 1010.9
20260506005629 75 0 2.6 9.6 0.00 0.30 0.12 27 1010.8
20260506005125 75 0 2.6 9.6 0.00 0.30 0.12 26 1010.7
20260506004625 75 0 2.6 9.6 0.00 0.30 0.12 27 1010.6
20260506004123 75 0 2.6 8.7 0.00 0.30 0.12 27 1010.6
20260506003623 76 0 1.7 8.7 0.00 0.30 0.12 27 1010.6
20260506003122 76 0 1.7 8.7 0.00 0.30 0.12 27 1010.6
20260506002627 76 0 2.6 9.6 0.00 0.31 0.12 27 1010.6
20260506002623 76 0 2.6 8.7 0.00 0.31 0.12 27 1010.6
20260506001621 76 0 3.5 10.4 0.00 0.31 0.12 27 1010.6
20260506001121 76 0 4.3 13.0 0.00 0.31 0.12 26 1010.6
20260506000621 76 0 4.3 13.0 0.00 0.31 0.12 26 1010.5
20260506000121 77 0 3.5 11.3 0.00 0.31 0.12 27 1010.3
20260505235620 77 0 3.5 9.6 0.00 0.31 0.12 27 1010.5
20260505235121 78 0 2.6 9.6 0.00 0.31 0.12 27 1010.3
20260505234618 77 0 1.7 7.8 0.00 0.31 0.12 27 1010.2
20260505234119 77 0 2.6 10.4 0.00 0.31 0.12 28 1010.2
20260505233618 77 0 3.5 10.4 0.00 0.31 0.12 28 1010.2
20260505233119 78 0 2.6 10.4 0.00 0.31 0.12 28 1010.2
20260505232619 78 0 2.6 10.4 0.00 0.31 0.12 28 1010.2
20260505232118 77 0 2.6 10.4 0.00 0.31 0.12 28 1010.2
20260505231619 78 0 3.5 10.4 0.00 0.31 0.12 27 1010.3
20260505231119 78 0 3.5 9.6 0.00 0.31 0.12 27 1010.2
20260505230623 77 0 2.6 10.4 0.00 0.31 0.12 27 1010.3
20260505230619 78 0 2.6 10.4 0.00 0.31 0.12 28 1010.2
20260505230223 77 0 3.5 11.3 0.00 0.31 0.12 27 1010.3
20260505225119 77 0 3.5 11.3 0.00 0.31 0.12 27 1010.3
20260505224619 77 0 4.3 12.2 0.00 0.31 0.12 27 1010.3
20260505224118 77 0 4.3 13.9 0.00 0.31 0.12 27 1010.5
20260505223621 77 0 3.5 13.0 0.00 0.31 0.12 28 1010.6
20260505223617 77 0 3.5 13.9 0.00 0.31 0.12 27 1010.6
20260505222617 76 0 3.5 10.4 0.00 0.31 0.12 29 1010.6
20260505222114 76 0 5.2 17.4 0.00 0.31 0.12 29 1010.7
20260505221615 76 0 6.1 17.4 0.00 0.31 0.12 29 1010.7
20260505221118 76 0 4.3 12.2 0.00 0.31 0.12 29 1010.8
20260505221114 76 0 4.3 13.0 0.00 0.31 0.12 29 1010.8
20260505220114 76 0 4.3 12.2 0.00 0.31 0.12 30 1011.0
20260505215614 77 0 4.3 11.3 0.00 0.31 0.12 31 1011.0
20260505215119 77 0 4.3 10.4 0.00 0.31 0.12 31 1011.2
20260505215115 77 0 4.3 11.3 0.00 0.31 0.12 31 1011.1
20260505214115 77 0 4.3 10.4 0.00 0.31 0.12 31 1011.3
20260505213614 77 0 4.3 17.4 0.00 0.31 0.12 30 1011.2
20260505213114 76 0 5.2 17.4 0.00 0.31 0.12 29 1011.2
20260505212615 76 0 5.2 15.6 0.00 0.31 0.12 29 1011.4
20260505212114 76 0 5.2 13.9 0.00 0.31 0.12 30 1011.3
20260505211619 76 0 4.3 16.5 0.00 0.31 0.12 32 1011.3
20260505211615 76 0 4.3 12.2 0.00 0.31 0.12 31 1011.4
20260505210618 76 0 4.3 11.3 0.00 0.31 0.12 32 1011.3
20260505210614 76 0 4.3 16.5 0.00 0.31 0.12 31 1011.4
20260505205614 76 0 4.3 13.9 0.00 0.31 0.12 33 1011.4
20260505205114 76 0 4.3 13.9 0.00 0.31 0.12 34 1011.5
20260505204614 76 0 4.3 13.9 0.00 0.31 0.12 34 1011.4
20260505204114 76 0 3.5 16.5 0.00 0.31 0.12 35 1011.5
20260505203615 76 0 4.3 16.5 0.00 0.31 0.12 35 1011.4
20260505203114 76 0 4.3 12.2 0.00 0.31 0.12 35 1011.5
20260505202615 76 0 4.3 17.4 0.00 0.31 0.12 36 1011.5
20260505202114 76 0 3.5 17.4 0.00 0.31 0.12 37 1011.5
20260505201613 76 0 3.5 12.2 0.00 0.31 0.12 36 1011.6
20260505201112 75 0 3.5 13.0 0.00 0.31 0.12 37 1011.5
20260505200612 74 0 3.5 13.0 0.00 0.31 0.12 38 1011.6
20260505200113 74 0 2.6 10.4 0.00 0.31 0.12 41 1011.9
20260505195612 73 0 2.6 9.6 0.00 0.31 0.12 40 1011.7
20260505195111 73 0 2.6 9.6 0.00 0.31 0.12 41 1011.9
20260505194611 74 0 3.5 9.6 0.00 0.31 0.12 41 1011.7
20260505194110 74 0 1.7 8.7 0.00 0.31 0.12 43 1011.9
20260505193611 73 0 0.9 6.1 0.00 0.31 0.12 46 1011.9
20260505193110 73 0 0.0 0.9 0.00 0.31 0.12 47 1012.0
20260505192610 73 0 0.0 0.9 0.00 0.31 0.12 45 1012.0
20260505192114 72 0 0.9 6.1 0.00 0.31 0.12 49 1012.2
20260505192110 73 0 0.9 6.1 0.00 0.31 0.12 48 1012.1
20260505191108 72 0 0.9 4.3 0.00 0.31 0.12 48 1012.2
20260505190608 72 0 1.7 6.1 0.00 0.31 0.12 48 1012.3
20260505190107 71 0 0.9 6.1 0.00 0.31 0.12 53 1012.4
20260505185606 71 0 0.0 6.1 0.00 0.31 0.12 52 1012.4
20260505185107 70 0 0.0 0.0 0.00 0.31 0.12 52 1012.6
20260505184610 69 0 0.0 0.9 0.00 0.31 0.12 52 1012.7
20260505184606 69 0 0.0 0.0 0.00 0.31 0.12 54 1012.6
20260505183606 69 0 0.0 0.9 0.00 0.31 0.12 53 1012.9
20260505183106 69 0 0.0 0.0 0.00 0.31 0.12 54 1012.8
20260505182607 69 0 0.0 0.0 0.00 0.31 0.12 54 1012.9
20260505182108 69 0 0.0 0.0 0.00 0.31 0.12 57 1013.0
20260505182104 69 0 0.0 0.0 0.00 0.31 0.12 57 1012.9
20260505181105 68 0 0.0 0.0 0.00 0.31 0.12 57 1013.0
20260505180604 68 0 0.0 0.0 0.00 0.31 0.12 59 1013.1
20260505180104 68 0 0.0 4.3 0.00 0.31 0.12 57 1013.2
20260505175604 68 0 0.0 6.1 0.00 0.31 0.12 56 1013.2
20260505175101 69 0 0.0 6.1 0.00 0.31 0.12 57 1013.2
20260505174601 69 0 0.0 0.0 0.00 0.31 0.12 55 1013.2
20260505174100 69 0 0.0 0.0 0.00 0.31 0.12 58 1013.2
20260505173558 68 0 0.0 0.0 0.00 0.31 0.12 60 1013.4
20260505173058 67 0 0.0 0.0 0.00 0.31 0.12 61 1013.2
20260505172558 67 0 0.0 0.0 0.00 0.31 0.12 58 1013.4
20260505172059 67 0 0.0 0.0 0.00 0.31 0.12 59 1013.4
20260505171601 66 0 0.0 0.0 0.00 0.31 0.12 61 1013.4
20260505171556 67 0 0.0 0.0 0.00 0.31 0.12 61 1013.4
20260505171056 67 0 0.0 0.0 0.00 0.31 0.12 63 1013.4
20260505170701 66 0 0.0 0.0 0.00 0.31 0.12 61 1013.4
20260505165556 66 0 0.0 0.0 0.00 0.31 0.12 62 1013.2
20260505165207 65 0 0.0 0.0 0.00 0.31 0.12 68 1013.2
20260505165056 66 0 0.0 0.0 0.00 0.31 0.12 64 1013.2
20260505164602 65 0 0.0 0.0 0.00 0.31 0.12 66 1013.1
20260505164557 65 0 0.0 0.0 0.00 0.31 0.12 67 1013.2
20260505163057 64 0 0.0 0.0 0.00 0.31 0.12 70 1013.4
20260505162559 64 0 0.0 0.0 0.00 0.31 0.12 72 1013.5
20260505162554 64 0 0.0 0.0 0.00 0.31 0.12 70 1013.4
20260505161552 64 0 0.0 0.0 0.00 0.31 0.12 72 1013.5
20260505161052 64 0 0.0 0.0 0.00 0.31 0.12 71 1013.5
20260505160552 64 0 0.0 0.0 0.00 0.31 0.12 71 1013.6
20260505153048 62 0 0.0 0.0 0.00 0.31 0.12 80 1013.1
20260505152548 62 0 0.0 0.0 0.00 0.31 0.12 82 1013.2
20260505152048 61 0 0.0 0.0 0.00 0.31 0.12 82 1013.2
20260505151548 61 0 0.0 0.0 0.00 0.31 0.12 82 1013.2
20260505151048 60 0 0.0 0.0 0.00 0.31 0.12 83 1013.2
20260505150545 60 0 0.0 0.0 0.00 0.31 0.12 82 1013.2
20260505140538 58 0 0.0 0.0 0.00 0.31 0.12 89 1012.8
20260505124033 58 0 0.0 0.0 0.01 0.31 0.12 89 1012.1
20260505123533 58 0 0.0 0.0 0.01 0.31 0.12 89 1012.3
20260505123038 58 0 0.0 0.0 0.01 0.31 0.12 89 1012.1
20260505123033 58 0 0.0 0.0 0.01 0.31 0.12 89 1012.3
20260505122037 58 0 0.0 0.0 0.01 0.31 0.12 89 1012.1
20260505122033 58 0 0.0 0.0 0.01 0.31 0.12 89 1012.1
20260505121036 58 0 0.0 0.0 0.01 0.31 0.12 89 1011.6
20260505121032 58 0 0.0 0.0 0.01 0.31 0.12 89 1011.7
20260505120035 58 0 0.0 0.0 0.01 0.30 0.11 89 1011.9
20260505120030 57 0 0.0 0.0 0.00 0.30 0.11 89 1011.9
20260505115029 58 0 0.0 0.0 0.01 0.30 0.11 89 1011.9
20260505114534 58 0 0.0 0.0 0.01 0.30 0.11 89 1011.9
20260505114530 58 0 0.0 0.0 0.01 0.30 0.11 89 1011.6
20260505113530 58 0 0.0 0.0 0.01 0.30 0.11 89 1011.7
20260505113029 58 0 0.0 0.0 0.01 0.30 0.11 89 1011.9
20260505112533 58 0 0.0 0.0 0.01 0.30 0.11 89 1012.2
20260505112529 58 0 0.0 0.0 0.01 0.30 0.11 89 1012.2
20260505111533 58 0 0.0 0.0 0.02 0.30 0.11 89 1012.0
20260505111529 58 0 0.0 0.0 0.02 0.30 0.11 89 1012.1
20260505110528 58 0 0.0 0.0 0.02 0.30 0.11 89 1012.1
20260505102029 58 0 0.0 0.0 0.03 0.29 0.10 89 1012.7
20260505101522 58 0 0.0 0.0 0.02 0.28 0.09 89 1013.0
20260505101022 58 0 0.0 0.0 0.02 0.28 0.09 89 1013.0
20260505100522 58 0 0.0 0.0 0.03 0.28 0.09 89 1013.1
20260505100022 58 0 0.0 0.0 0.03 0.28 0.09 89 1013.2
20260505095526 58 0 0.0 0.0 0.03 0.28 0.09 89 1013.5
20260505095522 58 0 0.0 0.0 0.03 0.28 0.09 89 1013.4
20260505094522 58 0 0.0 0.0 0.03 0.28 0.09 89 1013.4
20260505094022 58 0 0.0 0.9 0.03 0.28 0.09 89 1013.5
20260505093522 58 0 0.0 0.9 0.03 0.28 0.09 89 1013.2
20260505093021 58 0 0.0 0.9 0.02 0.27 0.08 89 1013.1
20260505092522 58 0 0.0 0.9 0.02 0.27 0.08 89 1013.7
20260505092022 58 0 0.0 0.0 0.01 0.26 0.07 89 1013.8
20260505091522 58 0 0.0 0.9 0.02 0.26 0.07 89 1013.9
20260505091021 58 0 0.0 1.7 0.02 0.26 0.07 89 1013.7
20260505090520 58 0 0.0 1.7 0.01 0.25 0.06 88 1013.9
20260505090024 58 0 0.0 0.9 0.01 0.25 0.06 88 1014.1
20260505090021 58 0 0.0 0.9 0.01 0.25 0.06 88 1013.8
20260505085024 58 0 0.0 3.5 0.02 0.25 0.06 88 1014.2
20260505085020 58 0 0.0 3.5 0.02 0.25 0.06 88 1014.2
20260505084020 58 0 0.0 0.0 0.03 0.25 0.06 88 1014.3
20260505083519 59 0 0.0 0.0 0.03 0.25 0.06 88 1014.6
20260505083020 59 0 0.0 0.0 0.04 0.25 0.06 88 1014.9
20260505082524 59 0 0.0 0.0 0.04 0.25 0.06 88 1015.2
20260505082520 59 0 0.0 0.0 0.04 0.25 0.06 88 1015.2
20260505081520 59 0 0.0 0.0 0.04 0.24 0.05 88 1015.2
20260505081017 59 0 0.0 0.0 0.04 0.24 0.05 88 1015.2
20260505080518 59 0 0.0 0.0 0.05 0.24 0.05 88 1015.3
20260505080017 59 0 0.0 0.0 0.05 0.24 0.05 88 1015.3
20260505075518 59 0 0.0 0.0 0.05 0.24 0.05 88 1015.6
20260505075021 59 0 0.0 0.0 0.04 0.23 0.04 88 1015.8
20260505075017 59 0 0.0 0.0 0.04 0.23 0.04 88 1015.8
20260505074017 59 0 0.0 0.0 0.04 0.22 0.03 88 1015.9
20260505073516 59 0 0.0 0.0 0.04 0.22 0.03 88 1016.0
20260505073020 59 0 0.0 0.0 0.04 0.21 0.02 88 1015.8
20260505073016 59 0 0.0 0.0 0.03 0.21 0.02 88 1015.9
20260505072016 59 0 0.0 0.0 0.04 0.21 0.02 88 1015.6
20260505071515 59 0 0.0 0.0 0.04 0.20 0.01 88 1015.7
20260505071016 59 0 0.0 0.0 0.05 0.20 0.01 88 1015.6
20260505070518 59 0 0.0 0.0 0.06 0.19 0.00 87 1015.7
20260505070514 59 0 0.0 0.0 0.05 0.19 0.01 87 1015.8
20260505065514 59 0 0.0 0.0 0.06 0.19 0.19 87 1015.6
20260505065013 59 0 0.0 0.0 0.06 0.19 0.19 86 1015.4
20260505064514 59 0 0.0 0.0 0.07 0.19 0.19 86 1015.6
20260505064013 59 0 0.0 0.0 0.06 0.18 0.18 86 1015.6
20260505063514 59 0 0.0 0.0 0.06 0.18 0.18 85 1015.5
20260505063015 60 0 0.0 0.0 0.05 0.17 0.17 85 1015.5
20260505063011 60 0 0.0 0.0 0.06 0.18 0.18 86 1015.4
20260505062010 60 0 0.0 0.0 0.05 0.17 0.17 85 1015.6
20260505061507 60 0 0.0 0.0 0.05 0.16 0.16 85 1015.5
20260505061008 60 0 0.0 0.0 0.04 0.15 0.15 85 1015.6
20260505060507 60 0 0.0 0.0 0.03 0.14 0.14 85 1015.6
20260505060009 60 0 0.0 0.0 0.02 0.13 0.13 84 1015.5
20260505060005 60 0 0.0 0.0 0.02 0.13 0.13 85 1015.4
20260505055005 60 0 0.0 0.0 0.02 0.13 0.13 84 1015.5
20260505054505 60 0 0.0 0.0 0.01 0.12 0.12 84 1015.3
20260505054003 60 0 0.0 0.0 0.01 0.12 0.12 83 1015.2
20260505053506 60 0 0.0 0.0 0.02 0.12 0.12 83 1015.2
20260505053502 60 0 0.0 0.0 0.02 0.12 0.12 83 1015.2
20260505052501 60 0 0.0 0.0 0.02 0.12 0.12 82 1015.3
20260505052001 60 0 0.0 0.0 0.02 0.12 0.12 82 1015.4
20260505051501 60 0 0.0 0.0 0.01 0.11 0.11 82 1015.4
20260505051002 60 0 0.0 0.0 0.01 0.11 0.11 81 1015.5
20260505050501 60 0 0.0 0.0 0.01 0.11 0.11 81 1015.3
20260505041456 59 0 0.0 0.0 0.00 0.10 0.10 78 1015.5
20260505040956 59 0 0.0 0.0 0.00 0.10 0.10 79 1015.4
20260505040455 59 0 0.0 0.0 0.00 0.10 0.10 79 1015.6
20260505035956 59 0 0.0 0.0 0.00 0.10 0.10 78 1015.6
20260505035455 59 0 0.0 0.0 0.00 0.10 0.10 78 1015.2
20260505034955 59 0 0.0 0.0 0.01 0.10 0.10 78 1015.2
20260505034459 58 0 0.0 0.0 0.02 0.10 0.10 79 1014.6
20260505034455 58 0 0.0 0.0 0.02 0.10 0.10 78 1015.0